When you browse on this site, cookies collect data to enhance your experience and personalize the content and advertising you see.
Visit our Privacy Policy to learn more. By continuing to use the site, you agree to this use of cookies and data.
  • In Hungary
  • List of Countries
  • For 7 days
  • Water Temperature
  • Satellite Maps
  • Weather Map
  • News
  • Weather Widgets
  • user-avatar
    Login

    Hourly Weather Kachmari

    Today, 20 February, Wednesday

    Time Temperature Precipitation Wind Pressure Humidity
    00:00 +4°C° 0 mm 4 mps 741 mmHg 81%
    01:00 +4°C° 0 mm 4 mps 741 mmHg 83%
    02:00 +4°C° 0 mm 2 mps 741 mmHg 89%
    03:00 +3°C° 0.3 mm 3 mps 741 mmHg 90%
    04:00 +3°C° 0.3 mm 4 mps 741 mmHg 90%
    05:00 +3°C° 0.3 mm 5 mps 741 mmHg 90%
    06:00 +2°C° 0 mm 5 mps 741 mmHg 91%
    07:00 +2°C° 0 mm 5 mps 742 mmHg 91%
    08:00 +1°C° 0 mm 4 mps 742 mmHg 92%
    09:00 +2°C° 0 mm 5 mps 742 mmHg 88%
    10:00 +3°C° 0 mm 6 mps 742 mmHg 83%
    11:00 +3°C° 0 mm 6 mps 743 mmHg 78%
    12:00 +4°C° 0.1 mm 6 mps 743 mmHg 74%
    13:00 +4°C° 0.1 mm 7 mps 743 mmHg 69%
    14:00 +5°C° 0.1 mm 7 mps 743 mmHg 65%
    15:00 +4°C° 0.1 mm 7 mps 743 mmHg 65%
    16:00 +4°C° 0.1 mm 6 mps 743 mmHg 66%
    17:00 +4°C° 0.1 mm 6 mps 743 mmHg 66%
    18:00 +3°C° 0 mm 6 mps 744 mmHg 68%
    19:00 +3°C° 0 mm 5 mps 744 mmHg 71%
    20:00 +2°C° 0 mm 5 mps 744 mmHg 73%
    21:00 +2°C° 0 mm 5 mps 745 mmHg 74%
    22:00 +2°C° 0 mm 5 mps 745 mmHg 75%
    23:00 +2°C° 0 mm 5 mps 745 mmHg 76%

    Tomorrow, 21 February, Thursday

    Time Temperature Precipitation Wind Pressure Humidity
    00:00 +3°C° 0 mm 4 mps 746 mmHg 78%
    01:00 +1°C° 0 mm 4 mps 746 mmHg 80%
    02:00 +1°C° 0 mm 4 mps 746 mmHg 83%
    03:00 0°C° 0 mm 4 mps 746 mmHg 86%
    04:00 0°C° 0 mm 4 mps 746 mmHg 88%
    05:00 0°C° 0 mm 4 mps 746 mmHg 91%
    06:00 0°C° 0 mm 4 mps 747 mmHg 91%
    07:00 0°C° 0 mm 4 mps 747 mmHg 90%
    08:00 0°C° 0 mm 4 mps 747 mmHg 90%
    09:00 +1°C° 0 mm 5 mps 747 mmHg 86%
    10:00 +2°C° 0 mm 5 mps 747 mmHg 83%
    11:00 +2°C° 0 mm 5 mps 747 mmHg 80%
    12:00 +3°C° 0 mm 5 mps 747 mmHg 76%
    13:00 +5°C° 0 mm 5 mps 747 mmHg 73%
    14:00 +5°C° 0 mm 6 mps 747 mmHg 69%
    15:00 +6°C° 0 mm 5 mps 746 mmHg 70%
    16:00 +6°C° 0 mm 4 mps 746 mmHg 70%
    17:00 +7°C° 0 mm 3 mps 745 mmHg 71%
    18:00 +6°C° 0.1 mm 4 mps 745 mmHg 72%
    19:00 +5°C° 0.1 mm 4 mps 745 mmHg 74%
    20:00 +5°C° 0.1 mm 5 mps 745 mmHg 75%
    21:00 +5°C° 0.4 mm 5 mps 744 mmHg 77%
    22:00 +5°C° 0.4 mm 5 mps 744 mmHg 78%
    23:00 +3°C° 0.4 mm 6 mps 743 mmHg 80%

    Day after tomorrow, 22 February, Friday

    Time Temperature Precipitation Wind Pressure Humidity
    00:00 +3°C° 0.8 mm 6 mps 743 mmHg 82%
    01:00 +3°C° 0.8 mm 6 mps 742 mmHg 84%
    02:00 +3°C° 0.8 mm 6 mps 742 mmHg 86%
    03:00 +3°C° 0.4 mm 6 mps 742 mmHg 87%
    04:00 +3°C° 0.4 mm 6 mps 741 mmHg 88%
    05:00 +3°C° 0.4 mm 6 mps 741 mmHg 90%
    06:00 +3°C° 0.7 mm 5 mps 741 mmHg 91%
    07:00 +3°C° 0.7 mm 5 mps 741 mmHg 92%
    08:00 +3°C° 0.7 mm 5 mps 742 mmHg 93%
    09:00 +1°C° 0.7 mm 6 mps 743 mmHg 89%
    10:00 -2°C° 0.7 mm 6 mps 744 mmHg 85%
    11:00 -4°C° 0.7 mm 7 mps 745 mmHg 80%
    12:00 -4°C° 0.1 mm 7 mps 746 mmHg 76%
    13:00 -4°C° 0.1 mm 7 mps 748 mmHg 72%
    14:00 -4°C° 0.1 mm 7 mps 749 mmHg 68%
    15:00 -6°C° 0 mm 7 mps 749 mmHg 66%
    16:00 -5°C° 0 mm 6 mps 750 mmHg 64%
    17:00 -6°C° 0 mm 6 mps 751 mmHg 62%
    18:00 -8°C° 0 mm 6 mps 752 mmHg 61%
    19:00 -8°C° 0 mm 6 mps 752 mmHg 61%
    20:00 -9°C° 0 mm 6 mps 753 mmHg 60%
    21:00 -9°C° 0 mm 6 mps 754 mmHg 57%
    22:00 -9°C° 0 mm 6 mps 754 mmHg 55%
    23:00 -9°C° 0 mm 6 mps 755 mmHg 52%

    23 February, Saturday

    Time Temperature Precipitation Wind Pressure Humidity
    00:00 -9°C° 0 mm 6 mps 755 mmHg 51%
    01:00 -9°C° 0 mm 6 mps 756 mmHg 51%
    02:00 -9°C° 0 mm 6 mps 756 mmHg 50%
    03:00 -9°C° 0 mm 6 mps 756 mmHg 51%
    04:00 -8°C° 0 mm 5 mps 756 mmHg 52%
    05:00 -10°C° 0 mm 5 mps 756 mmHg 53%
    06:00 -10°C° 0 mm 5 mps 756 mmHg 54%
    07:00 -9°C° 0 mm 4 mps 757 mmHg 55%
    08:00 -9°C° 0 mm 4 mps 757 mmHg 55%
    09:00 -8°C° 0 mm 4 mps 757 mmHg 54%
    10:00 -8°C° 0 mm 4 mps 758 mmHg 52%
    11:00 -7°C° 0 mm 5 mps 758 mmHg 50%
    12:00 -7°C° 0 mm 4 mps 758 mmHg 48%
    13:00 -5°C° 0 mm 4 mps 758 mmHg 46%
    14:00 -5°C° 0 mm 4 mps 758 mmHg 44%
    15:00 -5°C° 0 mm 4 mps 758 mmHg 44%
    16:00 -5°C° 0 mm 4 mps 758 mmHg 45%
    17:00 -5°C° 0 mm 4 mps 757 mmHg 46%
    18:00 -5°C° 0 mm 4 mps 758 mmHg 47%
    19:00 -6°C° 0 mm 3 mps 758 mmHg 49%
    20:00 -6°C° 0 mm 3 mps 758 mmHg 51%
    21:00 -6°C° 0 mm 3 mps 758 mmHg 53%
    22:00 -5°C° 0 mm 2 mps 758 mmHg 55%
    23:00 -5°C° 0 mm 2 mps 758 mmHg 57%

    24 February, Sunday

    Time Temperature Precipitation Wind Pressure Humidity
    00:00 -6°C° 0 mm 2 mps 758 mmHg 59%
    01:00 -4°C° 0 mm 1 mps 758 mmHg 60%
    02:00 -4°C° 0 mm 1 mps 758 mmHg 62%
    03:00 -4°C° 0 mm 1 mps 758 mmHg 62%
    04:00 -6°C° 0 mm 2 mps 757 mmHg 63%
    05:00 -6°C° 0 mm 2 mps 757 mmHg 64%
    06:00 -6°C° 0 mm 2 mps 757 mmHg 63%
    07:00 -6°C° 0 mm 2 mps 757 mmHg 62%
    08:00 -6°C° 0 mm 2 mps 757 mmHg 61%
    09:00 -5°C° 0 mm 2 mps 757 mmHg 53%
    10:00 -4°C° 0 mm 2 mps 757 mmHg 46%
    11:00 -3°C° 0 mm 2 mps 757 mmHg 39%
    12:00 -2°C° 0 mm 3 mps 757 mmHg 39%
    13:00 -1°C° 0 mm 3 mps 757 mmHg 40%
    14:00 -1°C° 0 mm 3 mps 756 mmHg 41%
    15:00 -1°C° 0 mm 3 mps 756 mmHg 44%
    16:00 -1°C° 0 mm 3 mps 756 mmHg 47%
    17:00 -1°C° 0 mm 3 mps 756 mmHg 50%
    18:00 -1°C° 0 mm 2 mps 756 mmHg 53%
    19:00 -1°C° 0 mm 2 mps 756 mmHg 55%
    20:00 -2°C° 0 mm 2 mps 756 mmHg 58%
    21:00 -2°C° 0 mm 2 mps 756 mmHg 59%
    22:00 -2°C° 0 mm 2 mps 756 mmHg 60%
    23:00 -2°C° 0 mm 2 mps 756 mmHg 61%

    25 February, Monday

    Time Temperature Precipitation Wind Pressure Humidity
    00:00 -2°C° 0 mm 2 mps 756 mmHg 61%
    01:00 -2°C° 0 mm 2 mps 756 mmHg 61%
    02:00 -2°C° 0 mm 2 mps 756 mmHg 61%
    03:00 -2°C° 0 mm 2 mps 755 mmHg 62%
    04:00 -2°C° 0 mm 3 mps 755 mmHg 62%
    05:00 -4°C° 0 mm 3 mps 754 mmHg 63%
    06:00 -4°C° 0 mm 3 mps 754 mmHg 62%
    07:00 -2°C° 0 mm 3 mps 754 mmHg 60%
    08:00 -2°C° 0 mm 3 mps 754 mmHg 59%
    09:00 -2°C° 0 mm 4 mps 753 mmHg 57%
    10:00 -1°C° 0 mm 4 mps 753 mmHg 56%
    11:00 0°C° 0 mm 4 mps 753 mmHg 55%
    12:00 +1°C° 0 mm 5 mps 752 mmHg 56%
    13:00 +2°C° 0 mm 5 mps 752 mmHg 57%
    14:00 +2°C° 0 mm 5 mps 752 mmHg 58%
    15:00 +2°C° 0 mm 5 mps 752 mmHg 67%
    16:00 +1°C° 0 mm 5 mps 752 mmHg 76%
    17:00 +1°C° 0 mm 4 mps 751 mmHg 85%
    18:00 0°C° 0 mm 4 mps 752 mmHg 86%
    19:00 0°C° 0 mm 4 mps 752 mmHg 87%
    20:00 -1°C° 0 mm 4 mps 753 mmHg 88%
    21:00 -1°C° 0 mm 4 mps 753 mmHg 89%
    22:00 -2°C° 0 mm 4 mps 753 mmHg 91%
    23:00 -3°C° 0 mm 4 mps 753 mmHg 92%
    Show more